Regional Weather Roundup
Issued by NWS

Home | Current Version | Previous Version | Graphics & Text | Print | Product List | Glossary On
Versions: 1 2 3 4 5 6 7 8 9 10 11 12 13 14 15 16 17 18 19 20 21 22 23 24 25 26 27 28 29 30 31 32 33 34 35 36 37 38 39 40 41 42 43 44 45 46 47 48 49 50
000
ASUS43 KDTX 230410
RWRMI
MICHIGAN HOURLY REGIONAL WEATHER ROUNDUP
NATIONAL WEATHER SERVICE DETROIT/PONTIAC MI
1100 PM EST THU FEB 22 2018

NOTE: "FAIR" INDICATES FEW OR NO CLOUDS BELOW 12,000 FEET WITH NO
SIGNIFICANT WEATHER AND/OR OBSTRUCTION TO VISIBILITY.

MIZ047>049-052>055-059>063-066>070-074>076-081>083-230500-
SOUTHEAST LOWER MICHIGAN

CITY           SKY/WX    TMP DP  RH WIND       PRES   REMARKS
ADRIAN         CLOUDY    33  29  85 E9        30.46F WCI  25
ALMA           CLOUDY    30  27  88 E12       30.50F WCI  20
ANN ARBOR      CLOUDY    36  29  75 NE8       30.46F WCI  30
BAD AXE        CLOUDY    31  27  84 NE8       30.53S WCI  23
CARO           CLOUDY    29  25  85 CALM      30.51F
DETROIT CITY   CLOUDY    33  28  81 NE8       30.48F WCI  26
DETROIT        CLOUDY    36  30  79 E7        30.47F WCI  30
FLINT          CLOUDY    31  25  78 E10       30.48F WCI  22
GROSSE ILE     CLOUDY    34  32  90 NE7       30.46F WCI  28
HILLSDALE      CLOUDY    32  30  93 E14G20    30.41F WCI  22
HOWELL         CLOUDY    33  28  81 E7        30.45F WCI  27

CITY           SKY/WX    TMP DP  RH WIND       PRES   REMARKS
JACKSON        CLOUDY    36  29  75 E10       30.43F WCI  28
LAMBERTVILLE   CLOUDY    33  30  88 E9G16     30.46F WCI  26
LANSING        CLOUDY    33  26  75 NE9       30.46F WCI  25
LAPEER         CLOUDY    31  26  84 NE3       30.50F
MASON          CLOUDY    36  25  66 E7        30.45F WCI  30
MONROE         CLOUDY    35  31  85 E7        30.46F WCI  29
MT. CLEMENS    CLOUDY    33  33  99 NE8       30.47F WCI  26
PONTIAC        CLOUDY    32  27  81 NE8       30.46F WCI  25
PORT HOPE        N/A     32  28  85 NE15      30.53F WCI  22
PORT HURON     CLOUDY    32  28  86 NE3       30.50F
TRI CITIES     CLOUDY    30  24  78 E10       30.51F WCI  21
MIDLAND        CLOUDY    30  25  79 E8        30.51F WCI  23
TROY           CLOUDY    33  28  82 NE7       30.49F WCI  27
SAGINAW HB     CLOUDY    30  27  86 E6        30.53S WCI  24
$$
MIZ043>046-050>051-056>058-064>065-071>073-077>080-230500-
SOUTHWEST LOWER MICHIGAN

CITY           SKY/WX    TMP DP  RH WIND       PRES   REMARKS
BATTLE CREEK   CLOUDY    37  28  70 E14       30.41F WCI  28
BENTON HARBOR  CLOUDY    40  32  73 E17       30.35F WCI  31
BIG RAPIDS     CLOUDY    30  22  70 SE13      30.44F WCI  20
COLDWATER      CLOUDY    36  32  87 E13       30.42F WCI  27
FREMONT        CLOUDY    32  18  55 E9G23     30.42F WCI  24
HOLLAND        CLOUDY    36  26  67 E14       30.41F WCI  27
GRAND RAPIDS   CLOUDY    33  26  75 E18G24    30.42F WCI  22
IONIA          CLOUDY    32  27  80 E15G22    30.44F WCI  22
KALAMAZOO      CLOUDY    38  30  73 SE12      30.39F WCI  30
LUDINGTON      CLOUDY    33  22  64 E10G17    30.40F WCI  25
MARSHALL       CLOUDY    36  29  76 E14       30.43F WCI  27
MOUNT PLEASANT CLOUDY    30  22  71 E10       30.49F WCI  21
MUSKEGON       CLOUDY    35  23  61 E14G23    30.41F WCI  26
SOUTH HAVEN    CLOUDY    40  32  73 E12       30.37F WCI  32
$$
MIZ016>042-230500-
NORTHERN LOWER MICHIGAN

CITY           SKY/WX    TMP DP  RH WIND       PRES   REMARKS
ALPENA         CLOUDY    28  21  75 E3        30.55F
BEAVER ISLAND  CLOUDY    29  23  77 E6        30.48F WCI  23
BELLAIRE       CLOUDY    32  21  63 E3        30.47F
CADILLAC       CLOUDY    29  18  61 E9        30.41F WCI  21
CHARLEVOIX     CLOUDY    31  21  67 E8        30.50F WCI  23
FRANKFORT      CLOUDY    35  22  60 E6        30.43F WCI  30
GAYLORD        CLOUDY    26  19  74 E7        30.45F WCI  18
GRAYLING       CLOUDY    28  19  70 E10       30.46F WCI  18
HARBOR SPRINGS CLOUDY    28  19  69 E9        30.49F WCI  19
HOUGHTON LAKE  CLOUDY    28  17  63 E9        30.48F WCI  19
MANISTEE       CLOUDY    34  18  52 E13       30.41F WCI  25
OSCODA         CLOUDY    30  23  75 E8        30.53F WCI  23
PELLSTON       CLOUDY    27  19  72 E8        30.50F WCI  19
ROGERS CITY    CLOUDY    27  19  74 SE6       30.54F WCI  20
TRAVERSE CITY  CLOUDY    34  19  54 SE6       30.45F WCI  29
$$
MIZ007>008-015-230500-
EASTERN UPPER MICHIGAN

CITY           SKY/WX    TMP DP  RH WIND       PRES   REMARKS
KINROSS        MOCLDY    23  17  78 E9        30.52F WCI  13
MACKINAC ISLAN CLOUDY    27  19  73 SE9       30.51F WCI  17
NEWBERRY       CLOUDY    24  19  81 SE8       30.48F WCI  15
S. S. MARIE    FAIR      24  12  60 E7        30.54F WCI  16
MUNISING         N/A     27  21  78 S7        30.46F WCI  19
$$
MIZ004>006-011>014-085-230500-
CENTRAL UPPER MICHIGAN

CITY           SKY/WX    TMP DP  RH WIND       PRES   REMARKS
MANISTIQUE     CLOUDY    27  24  89 E9        30.48F WCI  18
ESCANABA       FLURRIES  26  22  84 NE6       30.44F WCI  19
MENOMINEE      CLOUDY    29  25  85 E12       30.43F WCI  19
SAWYER-GWINN   CLOUDY    24  18  77 S6        30.40F WCI  17
$$
MIZ001>003-009>011-084-230500-
WESTERN UPPER MICHIGAN

CITY           SKY/WX    TMP DP  RH WIND       PRES   REMARKS
IRON MOUNTAIN  LGT SNOW  25  20  81 E5        30.38F WCI  19
HOUGHTON       MOCLDY    26  17  68 SE8       30.37F WCI  18
COPPER HARBOR    N/A     29  21  72 SW14G21   30.39F WCI  18
IRONWOOD       FLURRIES  27  19  72 SE9       30.33F WCI  18
$$

ABBREVIATIONS USED IN REMARKS
   TC - TEMPERATURE IN CELSIUS
  WCI - WIND CHILL INDEX
   HX - HEAT INDEX
  VSB - VISIBILITY




USA.gov is the U.S. government's official web portal to all federal, state and local government web resources and services.